When you browse on this site, cookies collect data to enhance your experience and personalize the content and advertising you see.
Visit our Privacy Policy to learn more. By continuing to use the site, you agree to this use of cookies and data.
  • In Czech Republic
  • List of Countries
  • For 7 days
  • Water Temperature
  • Satellite Maps
  • Weather Map
  • Weather Widgets
  • user-avatar
    Login

    Hourly Weather Labé

    Today, 15 December, Saturday

    Time Temperature Precipitation Wind Pressure Humidity
    00:00 +23°C° 0 mm 1 mps 675 mmHg 23%
    01:00 +23°C° 0 mm 1 mps 675 mmHg 23%
    02:00 +22°C° 0 mm 1 mps 675 mmHg 23%
    03:00 +22°C° 0 mm 1 mps 675 mmHg 23%
    04:00 +22°C° 0 mm 1 mps 675 mmHg 23%
    05:00 +21°C° 0 mm 1 mps 675 mmHg 24%
    06:00 +21°C° 0 mm 2 mps 675 mmHg 22%
    07:00 +22°C° 0 mm 3 mps 676 mmHg 21%
    08:00 +25°C° 0 mm 3 mps 676 mmHg 19%
    09:00 +27°C° 0 mm 3 mps 676 mmHg 17%
    10:00 +29°C° 0 mm 4 mps 677 mmHg 15%
    11:00 +32°C° 0 mm 4 mps 677 mmHg 13%
    12:00 +33°C° 0 mm 4 mps 677 mmHg 13%
    13:00 +34°C° 0 mm 4 mps 676 mmHg 13%
    14:00 +34°C° 0 mm 4 mps 676 mmHg 13%
    15:00 +33°C° 0 mm 3 mps 676 mmHg 16%
    16:00 +30°C° 0 mm 2 mps 675 mmHg 18%
    17:00 +29°C° 0 mm 2 mps 675 mmHg 20%
    18:00 +27°C° 0 mm 2 mps 675 mmHg 21%
    19:00 +26°C° 0 mm 2 mps 675 mmHg 21%
    20:00 +24°C° 0 mm 2 mps 675 mmHg 21%
    21:00 +23°C° 0 mm 2 mps 675 mmHg 21%
    22:00 +23°C° 0 mm 2 mps 675 mmHg 21%
    23:00 +21°C° 0 mm 2 mps 675 mmHg 21%

    Tomorrow, 16 December, Sunday

    Time Temperature Precipitation Wind Pressure Humidity
    00:00 +20°C° 0 mm 2 mps 675 mmHg 21%
    01:00 +20°C° 0 mm 2 mps 674 mmHg 21%
    02:00 +19°C° 0 mm 2 mps 674 mmHg 21%
    03:00 +19°C° 0 mm 2 mps 674 mmHg 20%
    04:00 +18°C° 0 mm 2 mps 674 mmHg 20%
    05:00 +18°C° 0 mm 2 mps 673 mmHg 20%
    06:00 +20°C° 0 mm 2 mps 674 mmHg 18%
    07:00 +21°C° 0 mm 3 mps 675 mmHg 17%
    08:00 +24°C° 0 mm 3 mps 676 mmHg 15%
    09:00 +26°C° 0 mm 4 mps 676 mmHg 14%
    10:00 +28°C° 0 mm 4 mps 676 mmHg 13%
    11:00 +30°C° 0 mm 4 mps 677 mmHg 11%
    12:00 +32°C° 0 mm 4 mps 676 mmHg 11%
    13:00 +33°C° 0 mm 4 mps 676 mmHg 11%
    14:00 +33°C° 0 mm 3 mps 675 mmHg 10%
    15:00 +31°C° 0 mm 3 mps 675 mmHg 12%
    16:00 +29°C° 0 mm 2 mps 674 mmHg 14%
    17:00 +28°C° 0 mm 2 mps 674 mmHg 16%
    18:00 +26°C° 0 mm 2 mps 674 mmHg 16%
    19:00 +24°C° 0 mm 1 mps 674 mmHg 15%
    20:00 +22°C° 0 mm 1 mps 674 mmHg 14%
    21:00 +21°C° 0 mm 1 mps 674 mmHg 14%
    22:00 +21°C° 0 mm 1 mps 674 mmHg 13%
    23:00 +20°C° 0 mm 1 mps 674 mmHg 12%

    Day after tomorrow, 17 December, Monday

    Time Temperature Precipitation Wind Pressure Humidity
    00:00 +20°C° 0 mm 1 mps 674 mmHg 12%
    01:00 +19°C° 0 mm 1 mps 673 mmHg 12%
    02:00 +19°C° 0 mm 1 mps 673 mmHg 12%
    03:00 +19°C° 0 mm 1 mps 673 mmHg 12%
    04:00 +18°C° 0 mm 1 mps 672 mmHg 13%
    05:00 +18°C° 0 mm 1 mps 672 mmHg 13%
    06:00 +20°C° 0 mm 1 mps 673 mmHg 14%
    07:00 +22°C° 0 mm 1 mps 674 mmHg 14%
    08:00 +24°C° 0 mm 1 mps 675 mmHg 14%
    09:00 +27°C° 0 mm 2 mps 675 mmHg 13%
    10:00 +30°C° 0 mm 2 mps 676 mmHg 12%
    11:00 +32°C° 0 mm 2 mps 676 mmHg 11%
    12:00 +33°C° 0 mm 1 mps 675 mmHg 10%
    13:00 +34°C° 0 mm 1 mps 675 mmHg 10%
    14:00 +35°C° 0 mm 1 mps 674 mmHg 10%
    15:00 +33°C° 0 mm 1 mps 674 mmHg 12%
    16:00 +31°C° 0 mm 1 mps 673 mmHg 15%
    17:00 +29°C° 0 mm 1 mps 673 mmHg 17%
    18:00 +27°C° 0 mm 1 mps 673 mmHg 19%
    19:00 +23°C° 0 mm 0 mps 673 mmHg 20%
    20:00 +21°C° 0 mm 0 mps 674 mmHg 21%
    21:00 +20°C° 0 mm 0 mps 674 mmHg 22%
    22:00 +22°C° 0 mm 1 mps 674 mmHg 23%
    23:00 +21°C° 0 mm 1 mps 674 mmHg 23%

    18 December, Tuesday

    Time Temperature Precipitation Wind Pressure Humidity
    00:00 +21°C° 0 mm 1 mps 673 mmHg 24%
    01:00 +20°C° 0 mm 1 mps 673 mmHg 25%
    02:00 +18°C° 0 mm 0 mps 673 mmHg 26%
    03:00 +19°C° 0 mm 1 mps 672 mmHg 27%
    04:00 +19°C° 0 mm 1 mps 672 mmHg 28%
    05:00 +18°C° 0 mm 1 mps 672 mmHg 30%
    06:00 +20°C° 0 mm 1 mps 673 mmHg 29%
    07:00 +20°C° 0 mm 0 mps 674 mmHg 28%
    08:00 +22°C° 0 mm 0 mps 675 mmHg 27%
    09:00 +25°C° 0 mm 0 mps 676 mmHg 23%
    10:00 +30°C° 0 mm 1 mps 676 mmHg 18%
    11:00 +33°C° 0 mm 1 mps 677 mmHg 13%
    12:00 +34°C° 0 mm 1 mps 676 mmHg 13%
    13:00 +34°C° 0 mm 1 mps 675 mmHg 12%
    14:00 +35°C° 0 mm 1 mps 674 mmHg 12%
    15:00 +33°C° 0 mm 1 mps 674 mmHg 14%
    16:00 +31°C° 0 mm 1 mps 674 mmHg 16%
    17:00 +29°C° 0 mm 1 mps 673 mmHg 19%
    18:00 +27°C° 0 mm 1 mps 673 mmHg 21%
    19:00 +25°C° 0 mm 1 mps 673 mmHg 23%
    20:00 +21°C° 0 mm 0 mps 674 mmHg 25%
    21:00 +20°C° 0 mm 0 mps 674 mmHg 26%
    22:00 +19°C° 0 mm 0 mps 674 mmHg 28%
    23:00 +19°C° 0 mm 0 mps 673 mmHg 29%

    19 December, Wednesday

    Time Temperature Precipitation Wind Pressure Humidity
    00:00 +18°C° 0 mm 0 mps 673 mmHg 33%
    01:00 +19°C° 0 mm 1 mps 673 mmHg 36%
    02:00 +19°C° 0 mm 1 mps 672 mmHg 40%
    03:00 +18°C° 0 mm 1 mps 672 mmHg 41%
    04:00 +18°C° 0 mm 1 mps 672 mmHg 42%
    05:00 +18°C° 0 mm 1 mps 672 mmHg 43%
    06:00 +20°C° 0 mm 1 mps 673 mmHg 39%
    07:00 +22°C° 0 mm 1 mps 674 mmHg 34%
    08:00 +24°C° 0 mm 1 mps 675 mmHg 30%
    09:00 +26°C° 0 mm 1 mps 675 mmHg 24%
    10:00 +29°C° 0 mm 2 mps 675 mmHg 18%
    11:00 +31°C° 0 mm 2 mps 676 mmHg 13%
    12:00 +32°C° 0 mm 2 mps 675 mmHg 12%
    13:00 +34°C° 0 mm 2 mps 674 mmHg 11%
    14:00 +35°C° 0 mm 2 mps 673 mmHg 11%
    15:00 +32°C° 0 mm 1 mps 673 mmHg 13%
    16:00 +30°C° 0 mm 1 mps 673 mmHg 15%
    17:00 +29°C° 0 mm 1 mps 672 mmHg 17%
    18:00 +27°C° 0 mm 1 mps 673 mmHg 19%
    19:00 +25°C° 0 mm 1 mps 673 mmHg 20%
    20:00 +23°C° 0 mm 1 mps 673 mmHg 21%
    21:00 +22°C° 0 mm 1 mps 673 mmHg 22%
    22:00 +21°C° 0 mm 1 mps 673 mmHg 22%
    23:00 +18°C° 0 mm 0 mps 673 mmHg 23%

    20 December, Thursday

    Time Temperature Precipitation Wind Pressure Humidity
    00:00 +18°C° 0 mm 0 mps 672 mmHg 23%
    01:00 +18°C° 0 mm 0 mps 672 mmHg 23%
    02:00 +17°C° 0 mm 0 mps 671 mmHg 23%
    03:00 +19°C° 0 mm 1 mps 672 mmHg 23%
    04:00 +18°C° 0 mm 1 mps 672 mmHg 22%
    05:00 +18°C° 0 mm 1 mps 672 mmHg 21%
    06:00 +20°C° 0 mm 1 mps 673 mmHg 20%
    07:00 +22°C° 0 mm 1 mps 674 mmHg 19%
    08:00 +22°C° 0 mm 0 mps 675 mmHg 18%
    09:00 +27°C° 0 mm 1 mps 675 mmHg 15%
    10:00 +30°C° 0 mm 2 mps 675 mmHg 13%
    11:00 +32°C° 0 mm 2 mps 675 mmHg 11%
    12:00 +34°C° 0 mm 2 mps 675 mmHg 10%
    13:00 +35°C° 0 mm 2 mps 674 mmHg 10%
    14:00 +36°C° 0 mm 2 mps 673 mmHg 10%
    15:00 +33°C° 0 mm 1 mps 673 mmHg 12%
    16:00 +31°C° 0 mm 1 mps 673 mmHg 14%
    17:00 +29°C° 0 mm 1 mps 672 mmHg 17%
    18:00 +27°C° 0 mm 1 mps 673 mmHg 18%
    19:00 +25°C° 0 mm 1 mps 673 mmHg 19%
    20:00 +23°C° 0 mm 1 mps 673 mmHg 20%
    21:00 +22°C° 0 mm 1 mps 673 mmHg 21%
    22:00 +22°C° 0 mm 1 mps 673 mmHg 22%
    23:00 +21°C° 0 mm 1 mps 673 mmHg 23%
    Show more